Location: *
(43.4667°N, 11.6833°E)
Time: 07:30:26
(UTC+00:00)

Cosmos 2279 Rocket - Pass Details

Date: 19 July 2019
Orbit: 965 x 978 km, 82.9° (Epoch: 24 August)

Event Time Altitude Azimuth Distance (km) Brightness Sun altitude
Exits shadow 21:54:57 32° 208° (SSW) 1,594 4.8 -22.9°
Maximum altitude 21:57:54 66° 280° (W) 1,052 4.2 -23.1°
Drops below altitude 10° 22:04:05 10° 3° (N) 2,716 7.3 -23.5°
Sets 22:06:38 0° 6° (N) 3,668 8.1 -23.6°
